[[{"header":{"parameterUnit":"m.s-1","parameterCategory":1,"la1":30.2991,"la2":30.254,"lo1":-89.0895,"lo2":-89.0444,"dy":0.0017,"dx":0.0017,"nx":28,"ny":28,"refTime":"2023-08-13T21:00:00:Z","depth":0,"parameterNumber":2,"parameterNumberName":"U-component_of_WINDS"},"data":[0,0,0,0,0,0,0,0,0,0,0,0,0,0,0,0,0,0,0,0,0,0,0,0,0,0,0,0,0,0,0,0,0,0,0,0,0,0,0,0,0,0,0,0,0,0,0,0,0,0,0,0,0,0,0,0,0,0,3.7664,3.7664,0,3.7668,3.7668,3.7668,3.7562,3.7559,3.7557,3.7554,3.7559,3.7562,3.7565,0,0,0,0,0,0,0,0,0,0,0,0,0,3.7566,3.7569,3.7664,3.7664,3.7664,3.7668,3.7668,3.7668,3.7563,3.7559,3.7556,3.7553,3.7558,3.7562,3.7565,0,0,0,0,0,0,0,0,0,0,0,0,0,3.7593,3.757,3.7664,3.7612,3.7608,3.7668,3.7668,3.7668,3.7564,3.7559,3.7555,3.7551,3.7557,3.7561,3.7566,3.7676,0,0,3.7578,3.758,0,0,0,0,0,0,0,0,3.7592,3.7597,3.762,3.7616,3.7611,3.761,3.7635,3.7671,3.7565,3.758,3.7554,3.7549,3.758,3.7582,3.7592,3.7676,3.7676,3.7579,3.7581,3.7583,3.7584,0,0,0,0,0,0,0,3.759,3.7596,3.7665,3.762,3.7615,3.7589,3.7588,3.7641,3.7604,3.7579,3.7571,3.7573,3.7577,3.7588,3.7591,3.7676,3.7578,3.7582,3.7585,3.7586,3.7848,3.7852,0,0,0,0,0,0,3.7595,3.7596,3.7665,3.7666,3.7591,3.7594,3.7593,3.7615,3.7603,3.7597,3.7576,3.7568,3.7583,3.7586,3.7591,3.7716,3.7583,3.7587,3.7589,3.7844,3.7849,3.7854,0,0,0,0,0,0,3.7594,3.7603,3.7665,3.7628,3.7634,3.76,3.7625,3.7617,3.7628,3.7601,3.7594,3.7595,3.758,3.7585,3.7655,3.7715,3.7589,3.7592,3.7838,3.7845,3.7851,3.797,0,0,0,0,0,0,3.7591,3.7603,3.7644,3.763,3.7637,3.7729,3.7629,3.762,3.7636,3.7624,3.7617,3.7611,3.7577,3.7649,3.7659,3.7719,3.7596,3.7833,3.7841,3.7849,3.7961,3.798,3.7997,0,0,0,0,0,3.7588,3.7679,3.7647,3.7656,3.7688,3.7733,3.7737,3.7695,3.7641,3.7682,3.7664,3.7612,3.7708,3.7657,3.7667,3.7729,3.7829,3.7839,3.7849,3.7953,3.7977,3.7997,0,0,0,0,0,0,3.7703,3.7676,3.7641,3.7729,3.7734,3.7715,3.7766,3.7722,3.7742,3.7731,3.7678,3.7678,3.7755,3.7749,3.7693,3.7834,3.7758,3.7771,3.7834,3.7857,3.7874,3.7873,3.7599,0,0,0,0,0,3.7738,3.7776,3.7751,3.7832,3.7836,3.7801,3.7819,3.7786,3.7789,3.779,3.7778,3.7783,3.7814,3.7835,3.7863,3.796,3.7956,3.8008,3.8026,3.8041,3.8052,3.81,3.8122,3.7887,3.7887,3.7886,0,0,3.7812,3.7802,3.783,3.7855,3.7854,3.7894,3.7803,3.7851,3.7879,3.7798,3.7861,3.7853,3.7855,3.7938,3.7974,3.7936,3.8116,3.8054,3.8066,3.8068,3.8113,3.8135,3.8155,3.7893,3.7892,3.7891,0,0,3.7966,3.7964,3.8029,3.803,3.803,3.8006,3.8022,3.8009,3.7999,3.8062,3.8001,3.8035,3.809,3.8093,3.8102,3.8255,3.8207,3.8266,3.836,3.8407,3.8426,3.8442,3.8494,3.8514,3.8277,3.8278,3.8278,0,3.8058,3.8115,3.8068,3.8118,3.813,3.8057,3.8122,3.8126,3.8136,3.8145,3.8102,3.8167,3.8164,3.8246,3.8283,3.8294,3.8309,3.8266,3.8427,3.8443,3.8457,3.8506,3.8526,3.8285,3.8284,3.8283,3.8282,0,3.8226,3.8267,3.832,3.8329,3.8347,3.8405,3.8366,3.839,3.8356,3.8336,3.84,3.8393,3.8416,3.8433,3.8401,3.851,3.8486,3.8436,3.8359,3.8487,3.8532,3.8551,3.8295,3.8292,3.829,3.8288,0,0,3.8453,3.8433,3.8453,3.8455,3.8449,3.8479,3.8533,3.8555,3.8575,3.8584,3.8627,3.8674,3.8627,3.8637,3.8605,3.8647,3.8765,3.8591,3.859,3.8621,3.8882,3.8917,3.894,3.8734,3.8737,3.874,3.888,0,3.8599,3.8689,3.8647,3.8741,3.8777,3.8707,3.8754,3.8755,3.8738,3.8766,3.8747,3.878,3.8717,3.8722,3.8761,3.8743,3.8816,3.8732,3.8771,3.8773,3.877,3.8964,3.9002,3.9134,3.8898,3.8901,3.8903,0,3.8783,3.8797,3.8894,3.8878,3.8892,3.8934,3.8949,3.8977,3.8977,3.8961,3.8972,3.8929,3.8979,3.8905,3.8973,3.8917,3.893,3.8924,3.8928,3.8928,3.8844,3.8966,3.9176,3.9195,3.8931,3.8929,3.8927,0,3.8934,3.8978,3.904,3.9045,3.9029,3.906,3.9055,3.9051,3.9065,3.9079,3.9087,3.9108,3.9118,3.9135,3.9098,3.9047,3.9171,3.9093,3.9158,3.9159,3.9185,3.9183,3.9397,3.9199,3.9199,3.9198,3.9198,0,3.9101,3.9162,3.9107,3.9146,3.9212,3.9164,3.9231,3.9218,3.9215,3.9249,3.9192,3.9225,3.9176,3.9204,3.9176,3.9236,3.9242,3.923,3.9221,3.9233,3.9234,3.924,3.9228,3.9203,3.9202,3.9201,3.92,0,3.928,3.9246,3.9309,3.9289,3.9285,3.9334,3.9317,3.9351,3.9329,3.9374,3.9381,3.9348,3.9378,3.9344,3.9372,3.9353,3.9433,3.9412,3.9432,3.9425,3.949,3.9484,3.9713,3.974,3.9527,3.9529,3.9531,0,3.9387,3.9432,3.9416,3.9434,3.9432,3.9462,3.9476,3.9431,3.9448,3.9449,3.9483,3.9509,3.9526,3.9578,3.9557,3.9578,3.9555,3.9634,3.9558,3.9568,3.9553,3.9549,3.9552,3.9649,3.9651,3.9654,3.9655,0,3.958,3.956,3.9582,3.9598,3.9615,3.9626,3.9632,3.9651,3.9603,3.9625,3.9654,3.9668,3.9696,3.9721,3.9736,3.9731,3.9685,3.968,3.9695,3.9707,3.9715,3.9708,3.9471,3.9674,3.9672,3.9671,3.967,3.9669,3.9724,3.9759,3.9752,3.9778,3.9778,3.9784,3.9814,3.9796,3.9819,3.9837,3.9809,3.9846,3.9843,3.9857,3.9857,3.9885,3.9851,3.9875,3.988,3.9886,3.9894,3.9713,3.9888,3.9888,3.9887,3.9887,3.9886,0,3.9911,3.9903,3.9927,3.9936,3.9956,3.991,3.9914,3.9934,3.9966,3.9967,3.9984,4.0018,4.0042,4.0022,4.0041,4.0067,4.0046,4.0074,4.007,4.0069,3.9925,3.9908,4.009,4.009,4.009,4.009,4.009,4.009,4.001,4.0067,4.0046,4.0102,4.0093,4.0127,4.0133,4.0138,4.0138,4.0177,4.0196,4.0182,4.0174,4.0192,4.0212,4.0205,4.0214,4.0249,4.0234,4.01,4.0079,4.006,4.0044,4.0252,4.0252,4.0376,4.0377,4.0378]},{"header":{"parameterUnit":"m.s-1","parameterCategory":1,"la1":30.2991,"la2":30.254,"lo1":-89.0895,"lo2":-89.0444,"dy":0.0017,"dx":0.0017,"nx":28,"ny":28,"refTime":"2023-08-13T21:00:00:Z","depth":0,"parameterNumber":3,"parameterNumberName":"V-component_of_WINDS"},"data":[0,0,0,0,0,0,0,0,0,0,0,0,0,0,0,0,0,0,0,0,0,0,0,0,0,0,0,0,0,0,0,0,0,0,0,0,0,0,0,0,0,0,0,0,0,0,0,0,0,0,0,0,0,0,0,0,0,0,4.3705,4.3706,0,4.3852,4.3853,4.3855,4.3855,4.3853,4.3851,4.3849,4.3993,4.3999,4.4004,0,0,0,0,0,0,0,0,0,0,0,0,0,4.3418,4.3423,4.3705,4.3706,4.3708,4.3851,4.3853,4.3855,4.3855,4.3853,4.385,4.3848,4.3992,4.3998,4.4005,0,0,0,0,0,0,0,0,0,0,0,0,0,4.3551,4.3425,4.3704,4.3726,4.3729,4.3851,4.3853,4.3856,4.3855,4.3853,4.385,4.3847,4.3989,4.3998,4.4006,4.4115,0,0,4.4032,4.4035,0,0,0,0,0,0,0,0,4.3544,4.3562,4.3721,4.3724,4.3728,4.3832,4.3805,4.3942,4.3856,4.3807,4.3849,4.3846,4.3942,4.3954,4.3987,4.4121,4.4128,4.4032,4.4037,4.4041,4.4043,0,0,0,0,0,0,0,4.3535,4.3556,4.3762,4.3723,4.3728,4.3726,4.3742,4.3831,4.3888,4.3811,4.3812,4.3829,4.3943,4.3979,4.3991,4.413,4.4032,4.404,4.4045,4.4048,4.4359,4.4362,0,0,0,0,0,0,4.3522,4.3548,4.3758,4.3767,4.3627,4.3733,4.3751,4.3801,4.3887,4.3898,4.3832,4.3829,4.3966,4.3981,4.3996,4.4128,4.4041,4.4049,4.4054,4.4356,4.436,4.4363,0,0,0,0,0,0,4.3516,4.3541,4.3752,4.3658,4.3684,4.3741,4.3798,4.3806,4.3842,4.3903,4.3912,4.3858,4.3965,4.3984,4.4085,4.4133,4.4053,4.406,4.4352,4.4357,4.4361,4.4394,0,0,0,0,0,0,4.3508,4.3538,4.3582,4.3659,4.369,4.3841,4.3801,4.3811,4.3857,4.3855,4.3931,4.394,4.3964,4.4073,4.4094,4.4143,4.4067,4.4348,4.4354,4.436,4.4389,4.4399,4.4408,0,0,0,0,0,4.3497,4.3584,4.3584,4.3609,4.3745,4.3844,4.3861,4.3888,4.3861,4.3904,4.3943,4.3938,4.4125,4.4083,4.4107,4.4159,4.4345,4.4352,4.4359,4.4384,4.4397,4.4408,0,0,0,0,0,0,4.3509,4.3594,4.3595,4.371,4.377,4.3843,4.3899,4.3901,4.3968,4.3963,4.3992,4.4009,4.411,4.4145,4.4097,4.4269,4.4231,4.4244,4.4242,4.4255,4.4264,4.4253,4.4074,0,0,0,0,0,4.3525,4.36,4.367,4.3764,4.3794,4.3841,4.3885,4.3901,4.3963,4.3988,4.4035,4.4094,4.4166,4.4212,4.4282,4.4394,4.441,4.4442,4.4452,4.4459,4.4469,4.453,4.4545,4.4387,4.4387,4.4387,0,0,4.3559,4.3615,4.366,4.3768,4.3816,4.3891,4.3863,4.3943,4.3998,4.4,4.4099,4.4135,4.4202,4.431,4.4359,4.4342,4.4516,4.4468,4.4474,4.448,4.4539,4.4554,4.4567,4.4392,4.4391,4.439,0,0,4.3658,4.3709,4.3793,4.3842,4.3916,4.3947,4.3967,4.4041,4.4066,4.4166,4.4168,4.4233,4.4357,4.4405,4.4445,4.4563,4.456,4.4585,4.4635,4.4694,4.4706,4.4718,4.4758,4.4773,4.4595,4.4595,4.4595,0,4.369,4.3805,4.3835,4.3916,4.3963,4.397,4.4054,4.4099,4.4191,4.4223,4.4203,4.4358,4.4404,4.4522,4.4551,4.4584,4.4606,4.4576,4.4703,4.4714,4.4725,4.4764,4.478,4.4597,4.4597,4.4597,4.4597,0,4.384,4.392,4.3978,4.4069,4.4122,4.4204,4.4245,4.4295,4.4306,4.4338,4.4439,4.4495,4.4576,4.4605,4.4616,4.4724,4.4711,4.4697,4.466,4.4742,4.4779,4.4795,4.4601,4.46,4.4599,4.4599,0,0,4.395,4.4058,4.4078,4.4119,4.4202,4.4263,4.4344,4.4425,4.4467,4.453,4.4598,4.4703,4.469,4.4736,4.4753,4.4805,4.4893,4.4784,4.4786,4.4801,4.5014,4.5024,4.5041,4.4892,4.4895,4.4898,4.5008,0,4.4058,4.4205,4.4234,4.4361,4.4434,4.4442,4.4513,4.457,4.4602,4.4667,4.4702,4.4776,4.4754,4.4781,4.4833,4.4871,4.4936,4.4864,4.4954,4.4957,4.4936,4.5061,4.5072,4.5174,4.5023,4.5026,4.5028,0,4.4203,4.4272,4.4407,4.4479,4.4511,4.4574,4.465,4.4713,4.4777,4.4797,4.4849,4.486,4.4943,4.4903,4.5017,4.4967,4.5005,4.5029,4.5034,4.5042,4.4996,4.5072,4.5207,4.5222,4.5051,4.5049,4.5048,0,4.4268,4.4395,4.4492,4.4527,4.4614,4.4658,4.4696,4.4758,4.4804,4.487,4.4901,4.4975,4.5015,4.5071,4.5101,4.5069,4.5212,4.5175,4.5229,4.5228,4.5258,4.5255,4.54,4.5285,4.5284,4.5284,4.5284,0,4.4385,4.4466,4.4522,4.4582,4.4673,4.4705,4.4794,4.4831,4.4886,4.4951,4.4962,4.5022,4.5059,4.5124,4.5148,4.5238,4.5256,4.5273,4.5278,4.5271,4.5269,4.5296,4.5289,4.5288,4.5287,4.5286,4.5286,0,4.4473,4.4514,4.462,4.4694,4.4715,4.4779,4.4841,4.4898,4.4931,4.5013,4.5034,4.5085,4.5162,4.5198,4.5293,4.5309,4.5411,4.5412,4.539,4.5392,4.5444,4.5438,4.561,4.5634,4.5503,4.5505,4.5506,0,4.4544,4.4607,4.4689,4.4734,4.4774,4.4847,4.4895,4.4929,4.4978,4.5056,4.5103,4.5182,4.5246,4.5369,4.5413,4.5486,4.5487,4.5543,4.5498,4.549,4.5487,4.5482,4.5488,4.555,4.5551,4.5553,4.5553,0,4.4665,4.4682,4.4752,4.483,4.4887,4.4949,4.501,4.5046,4.5088,4.5143,4.5224,4.5274,4.5372,4.5449,4.5525,4.5561,4.5564,4.5567,4.5584,4.5577,4.5561,4.557,4.5411,4.5563,4.5562,4.5561,4.5561,4.556,4.4746,4.4802,4.4869,4.4946,4.4996,4.5052,4.511,4.515,4.5218,4.5302,4.5317,4.5403,4.5464,4.5567,4.5607,4.5672,4.5659,4.5683,4.5688,4.5694,4.5696,4.5552,4.5686,4.5686,4.5686,4.5686,4.5685,0,4.4867,4.491,4.4981,4.5066,4.5127,4.5127,4.5194,4.5244,4.5319,4.5378,4.5442,4.5533,4.5608,4.5659,4.5734,4.5777,4.578,4.5795,4.5792,4.58,4.5704,4.5682,4.5792,4.5792,4.5792,4.5792,4.5792,4.5792,4.4936,4.5032,4.5057,4.5176,4.5219,4.5304,4.5342,4.5394,4.5441,4.5543,4.5607,4.564,4.5694,4.5774,4.5842,4.5855,4.5881,4.5897,4.5909,4.5818,4.5807,4.5796,4.5776,4.5903,4.5903,4.5999,4.6,4.6001]}]]